When you browse on this site, cookies collect data to enhance your experience and personalize the content and advertising you see.
Visit our Privacy Policy to learn more. By continuing to use the site, you agree to this use of cookies and data.
  • In Germany
  • List of Countries
  • For 7 days
  • Water Temperature
  • Weather Map
  • Weather Widgets
  • user-avatar
    Login

    Hourly Weather Yalunina

    Today, 14 October, Monday

    Time Temperature Precipitation Wind Pressure Humidity
    00:00 +6°C° 0.4 mm 5 mps 733 mmHg 89%
    01:00 +6°C° 0.4 mm 5 mps 732 mmHg 90%
    02:00 +6°C° 0.1 mm 4 mps 732 mmHg 90%
    03:00 +6°C° 0.1 mm 4 mps 732 mmHg 90%
    04:00 +7°C° 0.1 mm 3 mps 732 mmHg 90%
    05:00 +5°C° 0 mm 3 mps 731 mmHg 90%
    06:00 +5°C° 0 mm 4 mps 731 mmHg 90%
    07:00 +5°C° 0 mm 4 mps 731 mmHg 89%
    08:00 +5°C° 0 mm 4 mps 731 mmHg 86%
    09:00 +6°C° 0 mm 4 mps 732 mmHg 83%
    10:00 +7°C° 0 mm 5 mps 732 mmHg 80%
    11:00 +7°C° 0 mm 5 mps 732 mmHg 79%
    12:00 +6°C° 0 mm 4 mps 732 mmHg 79%
    13:00 +6°C° 0 mm 4 mps 732 mmHg 79%
    14:00 +6°C° 0 mm 4 mps 732 mmHg 80%
    15:00 +6°C° 0 mm 4 mps 732 mmHg 80%
    16:00 +6°C° 0 mm 4 mps 733 mmHg 81%
    17:00 +6°C° 0.1 mm 5 mps 733 mmHg 82%
    18:00 +5°C° 0.1 mm 5 mps 733 mmHg 83%
    19:00 +5°C° 0.1 mm 5 mps 733 mmHg 84%
    20:00 +5°C° 0 mm 5 mps 734 mmHg 84%
    21:00 +3°C° 0 mm 5 mps 734 mmHg 84%
    22:00 +3°C° 0 mm 5 mps 734 mmHg 84%
    23:00 +3°C° 0 mm 5 mps 734 mmHg 83%

    Tomorrow, 15 October, Tuesday

    Time Temperature Precipitation Wind Pressure Humidity
    00:00 +3°C° 0 mm 5 mps 734 mmHg 82%
    01:00 +3°C° 0 mm 5 mps 735 mmHg 82%
    02:00 +3°C° 0 mm 5 mps 735 mmHg 81%
    03:00 +5°C° 0 mm 5 mps 735 mmHg 81%
    04:00 +5°C° 0 mm 5 mps 736 mmHg 81%
    05:00 +4°C° 0 mm 4 mps 736 mmHg 81%
    06:00 +4°C° 0 mm 4 mps 736 mmHg 81%
    07:00 +4°C° 0 mm 4 mps 736 mmHg 81%
    08:00 +4°C° 0 mm 4 mps 736 mmHg 79%
    09:00 +5°C° 0 mm 4 mps 736 mmHg 77%
    10:00 +5°C° 0 mm 4 mps 736 mmHg 74%
    11:00 +5°C° 0 mm 4 mps 736 mmHg 75%
    12:00 +5°C° 0 mm 3 mps 736 mmHg 75%
    13:00 +5°C° 0 mm 3 mps 735 mmHg 75%
    14:00 +6°C° 0 mm 2 mps 735 mmHg 77%
    15:00 +7°C° 0 mm 1 mps 734 mmHg 78%
    16:00 +7°C° 0 mm 1 mps 734 mmHg 80%
    17:00 +6°C° 0.1 mm 1 mps 734 mmHg 82%
    18:00 +6°C° 0.1 mm 1 mps 733 mmHg 85%
    19:00 +5°C° 0.1 mm 1 mps 733 mmHg 88%
    20:00 +4°C° 0 mm 2 mps 733 mmHg 88%
    21:00 +4°C° 0 mm 2 mps 733 mmHg 88%
    22:00 +3°C° 0 mm 3 mps 734 mmHg 88%
    23:00 +2°C° 0 mm 3 mps 734 mmHg 89%

    Day after tomorrow, 16 October, Wednesday

    Time Temperature Precipitation Wind Pressure Humidity
    00:00 +2°C° 0 mm 3 mps 734 mmHg 90%
    01:00 +1°C° 0 mm 3 mps 735 mmHg 90%
    02:00 0°C° 0 mm 4 mps 735 mmHg 90%
    03:00 0°C° 0 mm 4 mps 736 mmHg 90%
    04:00 0°C° 0 mm 5 mps 736 mmHg 90%
    05:00 0°C° 0.2 mm 5 mps 736 mmHg 90%
    06:00 -1°C° 0.2 mm 5 mps 737 mmHg 89%
    07:00 -1°C° 0.2 mm 5 mps 737 mmHg 88%
    08:00 -1°C° 0 mm 5 mps 738 mmHg 84%
    09:00 0°C° 0 mm 5 mps 738 mmHg 80%
    10:00 0°C° 0 mm 5 mps 739 mmHg 76%
    11:00 0°C° 0 mm 5 mps 739 mmHg 74%
    12:00 +1°C° 0 mm 6 mps 739 mmHg 73%
    13:00 +1°C° 0 mm 6 mps 740 mmHg 71%
    14:00 +1°C° 0 mm 5 mps 740 mmHg 71%
    15:00 0°C° 0 mm 5 mps 741 mmHg 72%
    16:00 0°C° 0 mm 5 mps 741 mmHg 72%
    17:00 0°C° 0 mm 5 mps 742 mmHg 75%
    18:00 -1°C° 0 mm 5 mps 742 mmHg 77%
    19:00 -1°C° 0 mm 5 mps 742 mmHg 80%
    20:00 -2°C° 0 mm 5 mps 743 mmHg 80%
    21:00 -2°C° 0 mm 5 mps 743 mmHg 80%
    22:00 -2°C° 0 mm 5 mps 744 mmHg 80%
    23:00 -2°C° 0 mm 5 mps 744 mmHg 81%

    17 October, Thursday

    Time Temperature Precipitation Wind Pressure Humidity
    00:00 -2°C° 0 mm 5 mps 744 mmHg 81%
    01:00 -2°C° 0 mm 5 mps 744 mmHg 82%
    02:00 -2°C° 0 mm 5 mps 745 mmHg 81%
    03:00 -2°C° 0 mm 5 mps 745 mmHg 80%
    04:00 -2°C° 0 mm 4 mps 746 mmHg 79%
    05:00 -2°C° 0 mm 4 mps 746 mmHg 79%
    06:00 -3°C° 0 mm 4 mps 746 mmHg 80%
    07:00 -3°C° 0 mm 4 mps 746 mmHg 80%
    08:00 -2°C° 0 mm 4 mps 747 mmHg 77%
    09:00 -1°C° 0 mm 4 mps 747 mmHg 74%
    10:00 -1°C° 0 mm 4 mps 747 mmHg 70%
    11:00 -1°C° 0 mm 4 mps 747 mmHg 69%
    12:00 0°C° 0 mm 4 mps 747 mmHg 68%
    13:00 0°C° 0 mm 4 mps 747 mmHg 67%
    14:00 -1°C° 0 mm 4 mps 747 mmHg 68%
    15:00 -1°C° 0 mm 4 mps 747 mmHg 68%
    16:00 -1°C° 0 mm 4 mps 747 mmHg 69%
    17:00 0°C° 0 mm 3 mps 747 mmHg 73%
    18:00 -1°C° 0 mm 2 mps 747 mmHg 78%
    19:00 -1°C° 0 mm 2 mps 747 mmHg 82%
    20:00 -1°C° 0.1 mm 2 mps 747 mmHg 86%
    21:00 +1°C° 0.1 mm 1 mps 746 mmHg 90%
    22:00 0°C° 0.1 mm 1 mps 746 mmHg 94%
    23:00 0°C° 0.2 mm 1 mps 746 mmHg 95%

    18 October, Friday

    Time Temperature Precipitation Wind Pressure Humidity
    00:00 0°C° 0.2 mm 1 mps 746 mmHg 96%
    01:00 -1°C° 0.2 mm 0 mps 745 mmHg 97%
    02:00 -1°C° 0.2 mm 0 mps 745 mmHg 96%
    03:00 0°C° 0.2 mm 1 mps 745 mmHg 96%
    04:00 0°C° 0.2 mm 1 mps 745 mmHg 96%
    05:00 0°C° 0.2 mm 1 mps 745 mmHg 96%
    06:00 -2°C° 0.2 mm 2 mps 745 mmHg 96%
    07:00 -2°C° 0.2 mm 2 mps 744 mmHg 95%
    08:00 -2°C° 0.2 mm 3 mps 745 mmHg 93%
    09:00 -1°C° 0.2 mm 3 mps 745 mmHg 90%
    10:00 -2°C° 0.2 mm 4 mps 745 mmHg 88%
    11:00 -2°C° 0.1 mm 4 mps 745 mmHg 87%
    12:00 -2°C° 0.1 mm 4 mps 745 mmHg 86%
    13:00 -2°C° 0.1 mm 4 mps 745 mmHg 85%
    14:00 -2°C° 0.1 mm 4 mps 745 mmHg 83%
    15:00 -2°C° 0.1 mm 4 mps 745 mmHg 81%
    16:00 -3°C° 0.1 mm 4 mps 745 mmHg 79%
    17:00 -4°C° 0 mm 5 mps 746 mmHg 79%
    18:00 -5°C° 0 mm 5 mps 746 mmHg 80%
    19:00 -5°C° 0 mm 5 mps 746 mmHg 81%
    20:00 -6°C° 0 mm 5 mps 747 mmHg 81%
    21:00 -6°C° 0 mm 5 mps 747 mmHg 82%
    22:00 -7°C° 0 mm 5 mps 747 mmHg 83%
    23:00 -7°C° 0 mm 5 mps 748 mmHg 82%

    19 October, Saturday

    Time Temperature Precipitation Wind Pressure Humidity
    00:00 -7°C° 0 mm 4 mps 748 mmHg 81%
    01:00 -8°C° 0 mm 4 mps 748 mmHg 80%
    02:00 -8°C° 0 mm 4 mps 749 mmHg 79%
    03:00 -8°C° 0 mm 4 mps 749 mmHg 78%
    04:00 -8°C° 0 mm 4 mps 749 mmHg 77%
    05:00 -8°C° 0 mm 4 mps 750 mmHg 78%
    06:00 -8°C° 0 mm 4 mps 750 mmHg 78%
    07:00 -8°C° 0 mm 4 mps 751 mmHg 79%
    08:00 -7°C° 0 mm 4 mps 751 mmHg 74%
    09:00 -7°C° 0 mm 4 mps 751 mmHg 68%
    10:00 -5°C° 0 mm 4 mps 751 mmHg 63%
    11:00 -4°C° 0 mm 4 mps 752 mmHg 60%
    12:00 -3°C° 0 mm 4 mps 752 mmHg 57%
    13:00 -2°C° 0 mm 3 mps 752 mmHg 53%
    14:00 -2°C° 0 mm 3 mps 752 mmHg 56%
    15:00 -2°C° 0 mm 2 mps 752 mmHg 58%
    16:00 -3°C° 0 mm 2 mps 752 mmHg 60%
    17:00 -4°C° 0 mm 2 mps 752 mmHg 64%
    18:00 -4°C° 0 mm 2 mps 753 mmHg 67%
    19:00 -5°C° 0 mm 2 mps 753 mmHg 70%
    20:00 -3°C° 0 mm 1 mps 753 mmHg 70%
    21:00 -3°C° 0 mm 1 mps 753 mmHg 70%
    22:00 -3°C° 0 mm 1 mps 753 mmHg 70%
    23:00 -4°C° 0 mm 1 mps 753 mmHg 71%
    Show more